Location: Astronomy Club of Akron Observatory
(40.9700°N, 81.5606°W)
Time: 20:04:32
(UTC-04:00)

Daily predictions for brighter satellites

Satellite Brightness Start Highest point End
(mag) Time Altitude Azimuth Time Altitude Azimuth Time Altitude Azimuth
COSMOS 2406 3.6 21:13:33 10° SSW 21:19:16 73° WNW 21:25:00 10° NNE
Cosmos 1536 Rocket 4.3 21:17:25 10° SSW 21:21:40 57° W 21:25:56 10° N
Okean 1-7 Rocket 4.0 21:18:41 10° SSE 21:22:55 44° E 21:27:13 10° NNE
Cosmos 1743 3.0 21:19:22 10° NNW 21:23:15 72° W 21:27:09 10° S
YAOGAN 6 3.5 21:20:38 10° SE 21:23:46 31° ENE 21:26:55 10° N
Okean 2 4.3 21:22:08 10° SSE 21:25:43 30° E 21:29:18 10° NNE
Cosmos 1025 Rocket 3.3 21:26:54 10° SSE 21:30:58 47° E 21:35:05 10° NNE
SPOT 5 4.4 21:28:42 10° ESE 21:31:36 18° ENE 21:34:32 10° NNE
CZ-4B DEB 2.6 21:29:29 10° SSE 21:32:26 64° ENE 21:35:24 10° N
SAR-Lupe-1 4.2 21:28:58 10° SSE 21:32:29 59° ENE 21:36:02 10° N
Cosmos 1697 Rocket 4.4 21:29:04 10° N 21:33:02 19° NE 21:37:00 10° E
Cosmos 405 3.0 21:34:05 10° N 21:37:38 68° E 21:41:09 10° SSE
Cosmos 2369 4.5 21:33:05 10° N 21:38:26 39° ENE 21:43:25 11° SE
Cosmos 1666 3.0 21:36:55 10° NNW 21:40:39 66° W 21:44:21 10° S
USA 186 3.7 21:37:58 10° SSW 21:40:45 28° W 21:43:27 10° NW
COSMOS 2487 3.7 21:38:13 10° SSE 21:41:07 23° E 21:44:00 10° NE
CENTAUR R/B 4.0 21:34:37 10° NW 21:42:09 46° WSW 21:50:03 10° S
Meteor 2-9 Rocket 4.2 21:39:45 10° N 21:45:18 89° WSW 21:50:59 10° S
ERS-1 Rocket 3.3 21:41:30 10° SSE 21:46:21 52° ENE 21:51:14 10° N
SJ-11-01 4.5 21:42:23 10° S 21:47:03 76° WSW 21:51:47 10° NNW
Cosmos 1833 Rocket 3.6 21:44:06 10° SSE 21:48:48 28° ESE 21:53:31 10° NE
Cosmos 1371 Rocket 4.0 21:43:38 10° NNW 21:48:58 83° ENE 21:54:08 10° SSE
Cosmos 1238 Rocket 4.2 21:43:58 10° S 21:50:44 90° NW 21:57:07 10° N
ISS -1.5 21:48:01 10° W 21:50:55 28° NNW 21:53:50 10° NE
OAO 2 Rocket 4.0 21:46:32 10° WSW 21:51:02 36° S 21:54:39 15° SE
CRYOSAT 2 4.4 21:46:38 10° SSE 21:51:26 69° E 21:56:16 10° N
OE (NEXTSAT) 4.4 21:48:42 10° WNW 21:52:17 74° SSW 21:54:57 17° ESE
Cosmos 2058 Rocket 4.0 21:51:33 10° NNE 21:55:34 33° ENE 21:58:30 16° SE
Aureole 3 Rocket 4.5 21:53:45 10° SSW 21:59:25 47° W 22:03:33 10° N
Meteor 1-29 3.9 21:58:49 10° N 22:02:05 49° WNW 22:05:20 10° SSW
Cosmos 2181 Rocket 4.2 21:58:59 10° SSE 22:05:07 53° E 22:11:11 10° NNE
Cosmos 1437 Rocket 2.7 22:02:14 10° N 22:06:06 88° E 22:09:19 15° S
ASTEX 1 3.5 22:01:29 10° S 22:06:23 78° W 22:11:18 10° N
Cosmos 1939 Rocket 4.0 22:02:55 10° S 22:06:33 39° W 22:10:13 10° NNW
Intercosmos 24 3.7 22:04:32 10° N 22:08:13 76° W 22:11:24 13° S
Cosmos 1515 3.6 22:09:19 12° S 22:12:49 71° E 22:16:37 10° NNE
H-2A R/B 4.2 22:11:41 12° E 22:13:49 16° ENE 22:16:29 10° NNE
Resurs 01 Rocket 4.5 22:13:07 10° WSW 22:14:59 12° W 22:16:49 10° WNW
Meteor 2-19 Rocket 4.4 22:15:07 10° N 22:21:17 89° E 22:26:34 15° S
Cosmos 1980 Rocket 3.5 22:17:41 10° N 22:22:29 27° NE 22:25:49 16° ESE
Cosmos 962 Rocket 4.5 22:16:52 10° N 22:23:08 88° E 22:28:18 15° S
ARGOS 3.2 22:20:51 20° SSE 22:24:37 69° ENE 22:30:02 10° N
TELKOM 3 3.3 22:30:48 10° NW 22:33:11 78° NNE 22:33:53 46° ESE
Cosmos 2228 2.9 22:29:24 10° N 22:33:41 74° E 22:35:49 29° SSE
Cosmos 2322 Rocket 4.4 22:30:52 10° NNE 22:33:46 14° NE 22:36:41 10° ENE
Cosmos 921 Rocket 3.3 22:29:57 10° NNW 22:34:25 67° WSW 22:37:02 23° S
Tiangong 2 1.5 22:34:44 10° WNW 22:37:54 61° N 22:39:22 28° ENE
MetOp-B 4.3 22:36:13 19° S 22:40:09 69° WSW 22:45:31 10° NNW
NOAA 11 4.5 22:35:59 17° S 22:40:12 63° WSW 22:45:36 10° NNW
SL-8 Rocket 4.0 22:33:56 10° N 22:40:14 74° E 22:44:11 24° SSE
H-2A R/B 2.1 22:38:01 28° SE 22:40:29 59° ENE 22:45:29 10° N
Cosmos 1766 4.4 22:38:33 10° NNE 22:41:57 28° ENE 22:42:36 27° E
Landsat 7 4.3 22:40:01 29° ESE 22:41:59 44° ENE 22:46:31 10° N
Cosmos 2366 rocket 4.1 22:41:02 10° N 22:47:08 61° E 22:50:17 29° SSE
CZ-3A R/B 2.1 22:48:17 10° WSW 22:50:52 26° NW 22:51:31 20° N
Lacrosse 5 rocket 4.0 22:52:14 10° NNW 22:55:26 18° NNE 22:58:36 10° ENE
Terra 2.4 22:55:30 33° ESE 22:57:01 44° ENE 23:01:32 10° N
Meteor 1-4 Rocket 2.4 22:54:03 10° N 22:57:38 89° WSW 22:58:16 58° S
Cosmos 1602 Rocket 3.4 22:57:24 41° SSE 22:58:48 70° E 23:03:07 10° NNE
Cosmos 2082 Rocket 2.5 22:53:51 10° SSW 22:59:30 70° WNW 23:05:09 10° NNE
Cosmos 2278 4.5 22:56:35 10° NW 23:01:59 45° WSW 23:05:10 23° SSW
Cosmos 1269 Rocket 4.0 23:01:07 34° S 23:03:15 60° ESE 23:08:28 10° NNE
Cosmos 1420 Rocket 3.9 23:01:50 10° NNW 23:07:08 85° ENE 23:08:59 41° SSE
SPOT 5 3.5 23:07:20 25° SSW 23:09:21 41° W 23:13:30 10° NNW
DMSP B5D2-2 4.0 23:04:27 10° NNE 23:09:45 73° ESE 23:11:58 36° S
Cosmos 1048 Rocket 3.8 23:08:12 35° S 23:10:21 72° ESE 23:15:31 10° NNE
Cosmos 1805 4.2 23:07:08 10° NNE 23:10:41 32° ENE 23:10:42 32° ENE
Meteor 2-14 Rocket 4.4 23:07:12 10° N 23:13:17 76° E 23:15:45 38° SSE
deb Chang Zheng 4 3.7 23:10:02 10° NNE 23:14:14 49° E 23:14:27 49° ESE
Cosmos 1656 4.3 23:10:54 10° NW 23:16:07 48° WSW 23:18:29 30° SSW
Meteor 1-22 Rocket 4.1 23:11:56 10° NNW 23:17:17 83° W 23:19:21 40° S
Cosmos 1697 Rocket 2.8 23:11:57 10° NNW 23:17:33 68° WSW 23:19:38 39° S
Cosmos 1758 4.4 23:14:33 10° NNE 23:18:04 31° ENE 23:18:04 31° ENE
Cosmos 389 Rocket 4.2 23:16:14 10° NNE 23:18:31 22° ENE 23:18:31 22° ENE
Spot 4 4.5 23:21:37 37° E 23:22:33 42° ENE 23:27:03 10° N
Cosmos 1452 Rocket 4.3 23:17:54 10° NNW 23:22:54 45° WSW 23:25:00 30° SSW
Lacrosse 5 3.3 23:25:30 22° E 23:25:30 22° E 23:27:49 10° ENE
USA 267 4.4 23:19:14 10° ENE 23:22:58 23° ESE 23:22:58 23° ESE
CARTOSAT-1 3.4 23:24:03 63° SSE 23:24:43 86° ENE 23:29:04 10° NNW
Timation 2 Rocket 4.1 23:20:08 11° SSW 23:26:16 76° WNW 23:32:27 10° NNE
Cosmos 2360 4.2 23:20:39 10° NNW 23:26:22 71° ENE 23:28:04 46° SE
SL-16 R/B 3.4 23:22:30 10° N 23:27:34 32° ENE 23:29:33 26° E
Iridium 2 3.7 23:24:05 10° N 23:27:42 66° ENE 23:27:42 66° ENE
ISS -0.6 23:26:32 10° NW 23:28:15 13° N 23:29:57 10° NNE
Cosmos 2218 Rocket 4.5 23:24:29 10° NNW 23:30:27 54° W 23:33:41 27° SSW
SPOT 1/Viking Rocket 4.5 23:30:09 27° SSW 23:32:21 40° W 23:37:12 10° NNW
Cosmos 1833 Rocket 3.9 23:27:14 10° SW 23:32:30 41° WNW 23:37:49 10° N
IGS 5A 3.3 23:32:35 72° SSW 23:32:58 82° WSW 23:37:09 10° NNW
Meteor 2-16 Rocket 4.4 23:29:47 10° N 23:35:57 82° W 23:38:09 43° S
ATLAS CENTAUR R/B 2.7 23:35:14 10° N 23:38:20 25° NE 23:38:30 25° NE
SL-19 R/B 4.0 23:33:15 10° NNE 23:38:36 88° WNW 23:40:12 46° SSW
Cosmos 1842 3.2 23:38:51 77° W 23:38:54 77° W 23:42:51 10° N
Cosmos 1271 Rocket 2.8 23:36:42 10° NNW 23:40:35 73° W 23:40:35 73° W
CZ-4C R/B 4.0 23:45:30 42° NE 23:45:30 42° NE 23:48:24 10° N
Cosmos 1758 Rocket 3.9 23:47:43 52° ENE 23:47:43 52° ENE 23:51:35 10° NNE
Cosmos 2251 Rocket 4.0 23:47:57 44° E 23:47:57 44° E 23:52:57 10° NNE
H-2A R/B 2.5 23:48:48 51° SW 23:49:22 55° W 23:53:49 10° NNW
Cosmos 1544 3.6 23:46:26 10° NNW 23:49:33 57° NW 23:49:33 57° NW
Cosmos 1812 Rocket 4.4 23:48:34 10° NNW 23:52:47 42° W 23:53:29 39° WSW
